Home   Weather   Turaif   Past weeks
Flag for Saudi Arabia

Past Weather in Turaif, Saudi Arabia — November 2016

Now
59 °F

Partly sunny.


Feels Like: 59 °F
Forecast: 44 / 61 °F
Wind: 5 mph from Southwest

Location: Turaif

Current Time: Dec 14, 2018 at 3:33:24 pm

Latest Report: Dec 14, 2018 at 3:00 pm


Visibility: N/A

Pressure: 30.27 "Hg (27.44 "Hg at 827m altitude)

Humidity: 63%

Dew Point: 46 °F

Location of TuraifLocation

November 2016 Weather in Turaif — Graph

°F

High & Low Weather Summary for November 2016

 TemperatureHumidityPressure
High84 °F (Nov 10, 3:00 pm)100% (Nov 2, 4:00 am)30.30 "Hg (Nov 2, 4:00 am)
Low25 °F (Nov 25, 7:00 am)9% (Nov 24, 1:00 pm)29.83 "Hg (Nov 25, 2:00 pm)
Average57 °F39%30.14 "Hg
* Reported Nov 1 12:00 am — Nov 30 11:00 pm, Turaif. Weather by CustomWeather, © 2018

Note: Actual official high and low records may vary slightly from our data, if they occured in-between our weather recording intervals... More about our weather records

Advertising

Turaif Weather History for November 1, 2016

Scroll right to see more
 ConditionsComfort  
Time TempWeatherWind HumidityBarometerVisibility
12:00 am
Tue, Nov 1
61 °FClear.7 mph59%30.04 "Hg10 mi
1:00 am61 °FClear.5 mph63%30.04 "Hg10 mi
2:00 am57 °FClear.3 mph63%30.01 "Hg10 mi
3:00 am59 °FClear.3 mph68%30.01 "Hg10 mi
4:00 am59 °FClear.5 mph68%30.01 "Hg10 mi
5:00 am57 °FClear.7 mph77%29.98 "Hg10 mi
6:00 am57 °FClear.5 mph77%29.98 "Hg10 mi
7:00 am59 °FClear.5 mph82%29.98 "Hg10 mi
8:00 am59 °FSunny.2 mph77%29.98 "Hg10 mi
9:00 am63 °FSunny.7 mph77%30.01 "Hg10 mi
10:00 am68 °FSunny.14 mph60%29.98 "Hg10 mi
11:00 am70 °FSunny.15 mph60%29.98 "Hg10 mi
12:00 pm72 °FSunny.16 mph50%29.98 "Hg5 mi
1:00 pm73 °FSunny.17 mph41%29.95 "Hg4 mi
2:00 pm75 °FSunny.16 mph31%29.92 "Hg4 mi
3:00 pm75 °FSunny.14 mph29%29.92 "Hg4 mi
4:00 pm75 °FSunny.18 mph36%29.92 "Hg6 mi
5:00 pm73 °FSunny.16 mph38%29.92 "Hg10 mi
6:00 pm70 °FSunny.14 mph46%29.95 "Hg10 mi
7:00 pm68 °FClear.12 mph53%29.95 "Hg10 mi
8:00 pm66 °FClear.12 mph56%29.98 "Hg10 mi
9:00 pm64 °FClear.9 mph73%29.98 "Hg10 mi
10:00 pm63 °FClear.12 mph83%29.98 "Hg10 mi
11:00 pm63 °FClear.8 mph83%30.01 "Hg10 mi
Weather by CustomWeather, © 2018

See weather overview